Location: Newark
(44.3681°N, 100.3364°W)
Time: 17:43:40
(UTC+00:00)

Vanguard 1 - Pass Details

Date: 24 February 2020
Orbit: 649 x 3833 km, 34.2° (Epoch: 05 April)

Event Time Altitude Azimuth Distance (km) Brightness Sun altitude
Rises 17:56:16 0° 269° (W) 7,570 14.4 34.6°
Reaches altitude 10° 18:02:07 10° 265° (W) 6,189 14.1 34.9°
Maximum altitude 18:18:37 50° 199° (SSW) 2,614 13.7 35.6°
Drops below altitude 10° 18:27:49 10° 127° (SE) 3,578 13.6 35.8°
Sets 18:30:16 0° 121° (ESE) 4,254 13.8 35.9°
